Savannah, GA

8:33 AM EDT on March 28, 2017 (GMT -0400)
Savannah International

Weather History for KSAV - June, 2013

Change the Weather History Date:

Wednesday, June 12, 2013

  Actual Average Record
Temperature  
Mean Temperature 86 °F 79 °F  
Max Temperature 96 °F 90 °F 100 °F (1977)
Min Temperature 76 °F 69 °F 49 °F (1913)
Degree Days  
Heating Degree Days 0 0  
Month to date heating degree days 0 0  
Since 1 June heating degree days 0 0  
Since 1 July heating degree days 1626 1812  
Cooling Degree Days 21 14  
Month to date cooling degree days 184 161  
Year to date cooling degree days 542 564  
Since 1 June cooling degree days 184 161  
Growing Degree Days 36 (Base 50)    
Moisture  
Dew Point 71 °F    
Average Humidity 62    
Maximum Humidity 82    
Minimum Humidity 42    
Precipitation  
Precipitation 0.00 in 0.21 in 5.05 in (1947)
Month to date precipitation 4.89 2.22  
Year to date precipitation 24.43 18.48  
Sea Level Pressure  
Sea Level Pressure 29.99 in    
Wind  
Wind Speed 7 mph (West)    
Max Wind Speed 15 mph    
Max Gust Speed 21 mph    
Visibility 10 miles    
Events      
T = Trace of Precipitation, MM = Missing Value Source: NWS Daily Summary

Daily Weather History Graph

Daily Weather History Graph

Search for Another Location

Airport or City:

Trip Planner

Search our weather history database for the weather conditions in past years. The results will help you decide how hot, cold, wet, or windy it might be!

Date:

Astronomy

Jun. 12, 2013 Rise Set
Actual Time 6:17 AM EDT 8:31 PM EDT
Civil Twilight 5:49 AM EDT 9:00 PM EDT
Nautical Twilight 5:15 AM EDT 9:34 PM EDT
Astronomical Twilight 4:37 AM EDT 10:11 PM EDT
Moon 9:46 AM EDT (6/12) 11:18 PM EDT (6/12)
Length of Visible Light 15h 10m
Length of Day
14h 13m
Waxing Crescent, 14% of the Moon is Illuminated
Jun 12
Waxing Crescent
Jun 16
First Quarter
Jun 23
Full
Jun 30
Last Quarter
Jul 8
New

Hourly Weather History & Observations

Time (EDT) Temp. Heat Index Dew Point Humidity Pressure Visibility Wind Dir Wind Speed Gust Speed Precip Events Conditions
12:53 AM 78.1 °F - 70.0 °F 76% 30.01 in 10.0 mi WSW 5.8 mph - N/A   Clear
1:53 AM 78.1 °F - 69.1 °F 74% 30.00 in 10.0 mi WSW 3.5 mph - N/A   Clear
2:53 AM 78.1 °F - 69.1 °F 74% 29.99 in 10.0 mi SSW 4.6 mph - N/A   Clear
3:53 AM 78.1 °F - 69.1 °F 74% 29.99 in 10.0 mi WSW 5.8 mph - N/A   Partly Cloudy
4:53 AM 78.1 °F - 69.1 °F 74% 29.99 in 10.0 mi WSW 6.9 mph - N/A   Clear
5:53 AM 75.9 °F - 70.0 °F 82% 30.00 in 10.0 mi WSW 6.9 mph - N/A   Partly Cloudy
6:53 AM 75.9 °F - 70.0 °F 82% 30.01 in 10.0 mi West 6.9 mph - N/A   Partly Cloudy
7:53 AM 79.0 °F - 71.1 °F 77% 30.01 in 10.0 mi West 8.1 mph - N/A   Partly Cloudy
8:53 AM 82.9 °F 88.0 °F 72.0 °F 69% 30.02 in 10.0 mi WNW 8.1 mph - N/A   Partly Cloudy
9:53 AM 86.0 °F 93.0 °F 73.0 °F 65% 30.02 in 10.0 mi WNW 6.9 mph - N/A   Scattered Clouds
10:53 AM 89.1 °F 99.1 °F 75.0 °F 63% 30.01 in 10.0 mi West 8.1 mph - N/A   Scattered Clouds
11:53 AM 91.9 °F 98.4 °F 71.1 °F 50% 30.02 in 10.0 mi WNW 10.4 mph - N/A   Scattered Clouds
12:53 PM 93.0 °F 100.1 °F 71.1 °F 49% 30.01 in 10.0 mi WNW 9.2 mph - N/A   Scattered Clouds
1:53 PM 93.9 °F 99.1 °F 69.1 °F 44% 30.01 in 10.0 mi West 12.7 mph - N/A   Scattered Clouds
2:53 PM 95.0 °F 100.7 °F 69.1 °F 43% 29.99 in 10.0 mi WNW 12.7 mph 20.7 mph N/A   Scattered Clouds
3:53 PM 95.0 °F 100.7 °F 69.1 °F 43% 29.97 in 10.0 mi West 10.4 mph 16.1 mph N/A   Scattered Clouds
4:53 PM 96.1 °F 102.9 °F 70.0 °F 43% 29.95 in 10.0 mi WNW 8.1 mph - N/A   Scattered Clouds
5:53 PM 95.0 °F 100.7 °F 69.1 °F 43% 29.94 in 10.0 mi West 9.2 mph - N/A   Scattered Clouds
6:53 PM 93.9 °F 99.1 °F 69.1 °F 44% 29.94 in 10.0 mi West 8.1 mph - N/A   Scattered Clouds
7:53 PM 91.0 °F 97.6 °F 71.1 °F 52% 29.94 in 10.0 mi WSW 4.6 mph - N/A   Scattered Clouds
8:53 PM 87.1 °F 94.5 °F 73.0 °F 63% 29.95 in 10.0 mi WSW 3.5 mph - N/A   Partly Cloudy
9:53 PM 84.0 °F 91.2 °F 73.9 °F 72% 29.96 in 9.0 mi Calm Calm - N/A   Scattered Clouds
10:53 PM 84.0 °F 90.2 °F 73.0 °F 69% 29.97 in 10.0 mi Calm Calm - N/A   Clear
11:53 PM 82.0 °F 87.9 °F 73.9 °F 76% 29.96 in 9.0 mi Calm Calm - N/A   Clear